Temperature
16 16 16 16 16 16 16 16 16 16 16 16 16 16 16 16 16 16 16 16 16 16 16 16 16 16 15 15 15 15 15 15 16 16 14 13 13 12 12 12 12 12 12
16 16 16 16 16 16 16 16 16 16 16 16 16 16 16 16 16 16 16 16 16 16 16 16 16 15 15 15 15 15 15 15 15 15 15 13 13 12 12 12 11 11 12
16 16 16 16 16 16 16 16 16 16 16 16 16 16 16 16 16 16 15 15 15 16 16 16 15 15 14 14 14 15 15 15 15 15 15 14 13 12 12 12 11 11 11
16 16 16 16 16 16 16 16 16 16 16 16 16 16 16 16 15 15 15 15 15 15 15 15 15 15 14 14 14 15 15 15 15 15 15 15 13 12 12 12 11 11 11
16 16 16 16 15 15 16 16 16 16 15 15 15 15 15 15 15 15 15 15 15 15 15 15 15 15 15 14 14 15 15 15 15 15 15 15 14 14 14 13 11 11 11
16 16 15 15 15 15 15 15 15 15 15 15 15 15 15 15 15 15 15 15 15 15 15 15 15 15 15 15 15 15 15 15 15 15 15 15 16 16 15 14 12 11 11
17 16 16 15 15 15 15 15 15 15 15 15 15 15 15 14 14 15 15 15 15 15 15 15 15 15 15 15 15 15 15 15 16 16 16 16 16 16 15 14 13 12 11
17 16 16 15 15 15 15 15 15 15 15 14 14 14 14 14 14 14 15 15 15 15 15 15 15 15 15 15 15 15 15 15 15 16 16 16 16 15 15 14 13 12 10
17 16 16 16 15 15 15 15 15 15 14 14 14 13 13 14 14 14 14 15 15 15 15 14 14 15 15 15 15 15 15 15 15 15 15 15 15 15 14 14 12 11 10
16 16 16 16 15 15 15 14 14 14 14 13 13 13 13 13 13 13 14 14 14 14 14 13 13 14 14 14 14 14 14 15 15 15 15 15 14 14 14 14 14 13 12
15 15 15 15 15 14 14 14 14 13 13 13 13 12 12 13 13 13 13 13 14 14 13 13 13 13 13 13 13 13 14 14 14 14 14 15 15 14 14 14 14 13 13
13 13 14 14 14 13 13 13 13 13 13 13 12 12 12 12 13 13 13 13 13 13 13 13 13 12 13 13 12 12 12 13 13 14 14 14 15 15 15 15 14 13 12
12 12 12 12 13 13 13 13 13 12 12 12 12 12 12 12 12 12 12 13 13 13 13 13 13 13 12 12 12 12 12 12 12 13 13 14 14 15 14 14 13 12 11
12 11 11 11 11 12 12 12 12 12 12 12 12 12 12 12 12 12 12 12 12 12 12 12 12 12 12 12 12 11 11 11 12 12 13 13 13 14 14 13 13 12 11
11 11 11 11 11 11 11 12 12 12 12 12 12 12 12 12 12 12 12 12 12 12 12 12 12 12 12 11 11 11 11 11 11 11 11 12 12 13 13 12 12 12 12
11 11 11 11 11 11 11 11 11 11 11 11 11 12 12 12 12 12 12 12 11 11 11 11 11 11 11 11 11 10 10 10 10 10 10 11 11 12 12 12 12 12 12
11 11 11 11 11 11 11 11 11 11 11 11 11 11 11 11 12 12 12 12 11 11 11 11 11 11 11 10 10 10 10 10 10 10 10 11 11 11 11 11 12 11 11
11 11 11 11 11 11 11 11 11 11 10 11 11 11 11 11 11 11 11 11 11 10 10 10 10 10 10 10 10 10 10 10 10 10 10 10 10 10 10 11 11 11 11
11 11 11 11 11 11 11 11 11 10 10 10 10 10 10 10 10 10 10 10 10 10 10 10 10 10 10 10 10 10 10 10 10 10 10 10 10 10 10 10 10 10 10
11 11 11 11 11 11 11 11 11 11 10 10 10 10 10 10 10 10 9 9 9 9 9 9 9 9 9 9 9 9 10 10 10 10 10 10 10 10 10 10 10 10 11
11 11 11 10 10 11 11 11 10 10 10 10 10 10 9 10 9 9 9 9 9 9 9 9 9 9 9 9 9 9 9 9 9 9 9 9 9 9 10 10 10 10 10
10 10 10 10 10 10 10 10 10 10 10 10 10 10 10 10 10 10 10 9 9 9 9 9 9 9 9 9 9 9 9 9 10 10 9 9 9 9 9 10 10 10 10
10 10 10 10 10 10 10 10 10 10 10 10 10 10 10 10 10 10 10 9 9 9 9 9 9 9 9 9 9 9 9 9 9 9 9 9 9 9 9 9 9 9 9
10 10 10 10 10 10 10 10 10 10 10 10 10 10 10 10 10 10 10 9 9 9 9 9 9 9 9 9 9 9 9 9 9 9 9 9 9 9 8 8 8 8 8
10 10 10 10 10 10 10 10 10 10 10 10 10 10 10 10 10 10 10 10 10 9 9 9 9 9 9 9 9 9 9 9 9 9 9 9 9 9 9 9 9 8 8
10 9 9 9 10 10 10 10 10 10 10 10 10 10 10 10 10 10 10 10 10 9 9 9 9 9 9 9 9 9 9 9 9 9 8 8 8 8 8 8 8 8 8
Wind_Speed
7 8 8 8 8 9 8 8 8 7 8 8 8 8 8 7 7 7 8 8 9 8 7 8 8 8 7 6 6 7 6 5 5 3 2 5 5 7 9 11 11 8 8
7 6 7 7 8 9 9 9 9 9 8 8 7 8 7 6 6 7 7 8 9 10 10 9 9 8 10 8 8 9 7 5 5 5 3 5 5 7 7 7 7 5 7
6 6 5 6 7 8 9 9 8 7 5 4 5 5 6 6 7 7 7 8 9 11 10 10 10 9 10 8 9 9 8 7 5 6 5 4 3 5 6 5 5 3 7
7 7 7 6 6 7 6 6 5 4 3 4 3 4 5 7 8 8 8 9 10 10 9 10 10 11 11 11 10 10 9 8 6 8 7 7 4 5 6 5 3 1 2
9 9 9 7 7 6 6 6 5 4 5 4 3 3 3 5 7 8 8 9 9 8 8 9 10 13 14 13 11 10 11 10 9 9 10 7 5 7 9 5 4 3 1
11 11 9 8 8 8 8 7 6 5 4 3 2 2 3 4 6 11 10 8 8 8 8 8 9 11 14 17 16 18 18 16 14 10 9 11 10 7 7 6 5 4 3
13 12 11 10 10 9 8 7 6 5 3 2 2 2 3 5 6 8 12 7 7 8 8 7 6 7 10 10 14 20 21 23 22 15 13 11 12 13 13 10 7 5 5
12 12 12 11 11 10 9 9 7 5 4 3 3 3 3 5 6 6 7 6 6 7 8 8 7 7 7 9 8 10 11 14 17 15 14 14 12 13 16 13 8 6 5
10 10 11 12 12 11 11 9 7 5 4 4 3 4 4 5 6 5 7 5 5 6 6 7 8 7 10 11 8 9 10 9 13 14 13 12 14 18 18 10 10 7 3
6 8 10 12 13 12 10 8 5 4 5 4 5 5 5 5 6 7 8 5 5 5 5 7 10 10 11 13 9 9 11 10 10 10 9 10 11 17 24 16 13 10 5
2 2 5 7 8 9 8 6 5 5 5 5 5 4 4 4 6 8 10 5 6 6 6 5 5 11 12 12 10 8 10 9 9 9 8 7 8 10 12 13 12 11 9
5 5 4 4 5 6 7 6 6 7 6 5 4 4 3 3 4 7 10 8 7 6 5 5 5 9 11 12 8 7 7 7 5 5 6 8 9 10 11 11 13 13 12
5 3 3 4 4 4 5 6 5 5 4 4 4 4 3 3 4 7 9 10 10 5 4 7 7 7 9 8 9 10 8 5 5 5 7 9 9 8 7 7 6 8 7
4 3 2 3 3 2 3 5 5 5 4 4 4 4 4 3 3 3 4 5 8 6 5 7 7 5 3 4 6 6 4 5 6 6 6 4 5 6 6 5 5 5 4
3 3 3 3 3 3 3 2 3 4 5 5 4 4 4 4 6 9 8 7 6 7 7 4 3 3 2 2 3 3 3 4 4 3 4 5 5 6 5 5 5 5 6
3 3 2 2 2 3 4 4 8 4 5 6 5 3 1 2 5 10 12 11 12 14 7 4 4 5 5 5 5 4 4 4 4 3 4 4 5 6 5 4 4 5 6
3 2 2 2 2 2 3 4 3 3 5 5 5 5 4 3 2 6 10 11 13 13 4 4 5 5 5 5 5 5 4 4 3 3 3 4 4 5 5 4 5 4 5
4 3 3 2 2 2 3 4 4 4 2 2 3 5 6 6 6 6 10 10 6 5 3 4 5 5 5 5 5 5 4 4 4 4 4 5 6 5 5 5 6 5 5
4 2 2 1 1 1 1 2 2 3 4 3 3 3 6 8 8 7 7 3 4 5 4 4 5 5 5 6 5 5 5 4 4 4 5 6 7 6 6 6 6 7 6
3 3 2 1 2 2 2 2 3 4 5 4 3 3 3 3 2 2 2 2 3 5 5 5 5 5 5 6 6 5 5 5 5 5 5 6 7 6 7 7 7 6 6
3 2 2 2 2 1 2 3 3 4 4 3 2 3 5 2 3 3 3 3 4 4 4 5 4 4 5 5 5 6 7 6 6 6 6 5 6 5 5 5 6 6 5
4 3 2 1 1 2 3 3 3 3 3 3 2 2 4 2 2 2 3 3 3 4 4 4 4 4 5 5 6 6 6 7 6 6 6 6 5 5 4 4 4 4 4
4 4 2 2 2 4 4 3 3 3 3 3 3 2 2 2 2 2 3 3 3 3 3 4 4 4 4 3 4 6 7 8 7 7 7 7 7 6 5 5 4 4 6
3 4 4 3 4 4 4 3 3 3 3 3 3 2 2 2 2 3 4 3 3 3 3 4 4 6 7 5 6 8 8 8 8 8 9 8 8 7 7 6 7 9 9
3 4 4 4 4 3 3 3 2 2 2 2 2 2 2 2 2 2 2 3 3 4 5 4 4 5 7 8 8 8 10 13 12 10 9 7 7 7 7 7 8 8 9
4 5 4 4 3 3 2 2 2 2 2 1 1 1 1 1 1 1 2 2 2 3 3 3 4 6 7 7 9 11 12 14 15 14 9 5 6 6 7 7 10 10 10
Wind_Direction
189 181 181 186 178 168 171 175 177 186 194 209 217 226 228 228 227 221 213 203 207 217 218 207 196 174 180 179 172 166 152 139 139 152 126 142 145 145 132 115 99 81 78
194 185 180 177 175 178 185 189 190 190 195 206 211 215 222 226 227 219 217 206 207 214 216 203 199 184 179 182 178 180 173 151 137 145 134 156 153 156 142 126 120 109 97
175 171 163 159 168 184 192 194 194 191 200 213 212 216 226 232 228 213 205 205 212 218 209 199 199 188 185 181 181 179 179 170 142 147 153 157 135 153 135 118 114 127 117
171 171 174 174 171 181 192 199 203 204 223 238 236 231 233 235 231 221 209 211 215 215 205 199 199 197 192 184 184 178 170 163 148 153 152 154 143 152 142 137 141 195 138
179 189 194 189 184 188 206 217 218 217 221 219 205 214 231 229 225 215 205 206 206 205 200 199 203 202 195 188 187 181 170 163 160 157 158 161 165 173 177 163 154 157 128
190 203 200 186 187 196 206 211 213 213 206 190 199 238 259 253 242 221 206 202 199 200 201 201 208 206 203 197 193 187 178 171 169 166 170 184 189 179 159 163 142 149 190
201 205 199 191 190 197 197 194 198 197 188 192 226 252 270 276 268 243 223 204 195 193 188 180 186 183 184 191 200 194 190 183 176 170 177 191 189 186 175 172 168 163 178
202 199 195 192 194 189 186 191 192 186 195 218 254 271 276 275 252 234 209 181 174 178 173 170 168 162 164 165 171 184 191 192 188 183 189 194 191 184 185 181 160 129 91
202 194 192 191 192 188 191 193 187 185 202 217 232 246 254 264 243 197 147 138 142 151 158 161 167 172 182 168 158 168 181 194 199 199 197 193 182 175 171 155 154 154 158
211 201 193 192 191 190 190 186 183 189 212 230 233 231 234 246 240 203 155 141 149 151 154 175 181 175 175 173 173 174 185 192 186 198 200 191 179 177 179 181 176 174 156
89 136 182 193 192 186 180 174 185 194 206 226 226 227 230 240 248 210 170 160 164 160 162 175 192 174 161 166 173 189 199 185 184 188 189 179 172 177 186 187 183 179 174
79 82 100 137 180 186 172 170 178 179 185 191 199 222 240 250 238 221 189 178 169 165 172 174 180 173 158 153 158 177 181 170 169 173 175 177 182 187 190 187 187 190 188
93 83 86 103 117 146 161 162 163 164 164 178 190 213 236 251 253 232 197 178 169 160 164 167 172 182 172 164 172 180 180 180 182 184 191 193 192 181 156 150 157 177 182
113 114 114 114 118 144 159 159 157 166 172 185 198 210 220 223 224 199 169 157 152 136 126 131 125 136 157 176 181 188 191 203 202 201 197 173 140 140 152 153 155 159 173
96 116 121 124 117 99 93 95 176 185 178 179 201 201 199 219 224 199 177 173 162 145 128 114 119 137 174 210 211 196 187 194 197 171 155 149 156 158 158 151 146 154 175
97 108 125 121 101 100 110 80 51 73 118 135 139 138 168 253 247 207 193 176 158 149 134 154 172 184 199 210 213 206 198 200 194 165 143 149 164 172 165 151 148 161 184
133 131 132 128 132 144 151 153 142 82 60 66 71 81 83 51 77 172 174 162 157 153 141 170 185 196 206 212 217 211 202 195 178 159 144 152 169 177 176 177 168 164 185
121 114 120 127 150 161 170 172 169 164 148 84 54 78 95 94 99 124 139 133 152 171 170 179 196 204 208 212 215 216 207 188 179 176 168 166 174 178 183 188 184 178 179
128 126 120 103 117 153 161 146 147 153 143 139 131 98 93 91 91 118 138 142 169 198 205 195 193 196 204 206 208 205 197 192 187 178 182 180 178 176 186 192 188 188 179
160 165 143 95 66 44 58 108 127 134 140 151 166 165 144 121 130 155 202 222 202 208 212 211 204 200 200 201 199 195 194 192 189 187 185 183 181 180 186 188 186 187 194
171 172 136 98 97 92 113 124 135 140 150 163 189 186 168 168 189 205 218 231 229 222 218 221 218 209 205 199 198 200 203 204 196 190 183 177 171 174 176 176 183 188 190
155 158 144 138 145 143 136 127 126 139 151 150 133 130 174 180 191 221 238 243 240 234 227 224 227 220 209 203 204 207 211 215 210 198 186 175 164 157 156 169 180 183 198
140 144 128 104 110 127 120 114 120 130 136 142 152 166 192 223 242 255 259 257 253 250 243 237 241 240 228 211 207 211 216 217 211 202 195 189 183 182 184 196 206 217 223
118 131 119 107 109 121 133 141 149 160 161 168 185 202 215 237 252 257 256 253 252 253 248 237 237 242 239 228 227 226 228 223 206 199 193 191 189 190 194 205 216 225 226
113 118 118 112 114 126 140 153 166 174 180 192 209 219 233 248 276 290 273 254 250 257 260 251 236 237 241 236 231 230 228 220 209 197 188 186 188 192 199 208 217 221 222
127 122 116 115 113 116 132 149 148 150 167 185 201 204 202 217 285 310 309 290 277 278 284 278 262 259 255 249 242 236 226 215 209 204 192 181 191 206 213 223 224 223 221
Height
1482 1483 1484 1486 1489 1491 1493 1496 1498 1500 1502 1504 1506 1509 1511 1512 1513 1514 1515 1517 1518 1520 1522 1523 1525 1527 1529 1531 1534 1536 1538 1541 1543 1544 1546 1548 1549 1550 1551 1552 1552 1552 1551
1480 1481 1482 1484 1485 1487 1489 1492 1494 1496 1497 1499 1501 1503 1505 1506 1507 1508 1509 1511 1513 1515 1517 1518 1520 1522 1524 1526 1529 1531 1534 1537 1540 1542 1543 1544 1546 1548 1549 1550 1551 1551 1550
1478 1479 1480 1481 1483 1485 1486 1488 1490 1492 1494 1496 1497 1499 1500 1501 1502 1503 1504 1506 1508 1510 1511 1512 1514 1516 1518 1520 1523 1526 1529 1533 1536 1540 1541 1542 1543 1545 1546 1548 1550 1550 1549
1475 1476 1478 1479 1481 1483 1484 1486 1488 1490 1491 1493 1493 1494 1496 1497 1498 1499 1500 1502 1504 1505 1506 1507 1509 1511 1512 1514 1517 1521 1524 1528 1532 1536 1538 1539 1541 1542 1543 1545 1547 1548 1548
1472 1474 1476 1477 1479 1481 1482 1484 1486 1488 1489 1490 1490 1491 1491 1492 1493 1495 1496 1498 1499 1501 1502 1503 1505 1507 1508 1511 1513 1517 1520 1523 1528 1532 1534 1536 1537 1538 1539 1542 1544 1546 1546
1468 1470 1472 1474 1475 1477 1479 1481 1483 1485 1486 1487 1487 1487 1487 1488 1489 1490 1491 1493 1495 1496 1498 1499 1501 1503 1505 1507 1510 1513 1516 1519 1522 1526 1529 1532 1534 1535 1537 1538 1540 1542 1543
1464 1465 1468 1469 1471 1473 1476 1478 1480 1482 1483 1484 1484 1483 1483 1484 1484 1485 1486 1488 1490 1492 1494 1496 1498 1500 1502 1504 1507 1510 1512 1516 1519 1522 1525 1528 1531 1533 1534 1535 1537 1539 1541
1459 1461 1463 1465 1466 1469 1471 1474 1477 1479 1480 1480 1481 1480 1480 1480 1481 1481 1482 1484 1485 1487 1490 1492 1494 1496 1498 1500 1503 1506 1509 1512 1515 1518 1522 1525 1529 1531 1531 1533 1535 1538 1539
1454 1456 1458 1461 1463 1465 1467 1470 1473 1475 1476 1476 1477 1477 1477 1477 1478 1478 1479 1481 1482 1484 1485 1487 1490 1493 1495 1497 1500 1503 1506 1509 1512 1514 1518 1521 1525 1527 1528 1529 1531 1533 1535
1450 1452 1454 1456 1458 1461 1463 1466 1469 1471 1472 1473 1473 1474 1474 1475 1475 1476 1477 1478 1479 1480 1482 1484 1488 1490 1492 1494 1497 1500 1502 1504 1507 1510 1513 1516 1520 1522 1524 1525 1527 1529 1531
1448 1448 1450 1451 1453 1456 1460 1463 1466 1467 1468 1469 1470 1471 1472 1473 1473 1474 1475 1476 1477 1478 1479 1482 1485 1487 1488 1490 1493 1496 1499 1501 1504 1507 1510 1512 1515 1517 1520 1522 1524 1526 1529
1447 1447 1448 1448 1450 1453 1457 1459 1461 1463 1465 1466 1467 1468 1469 1470 1471 1472 1473 1474 1475 1477 1478 1480 1482 1483 1485 1486 1489 1492 1496 1498 1500 1503 1505 1507 1510 1513 1516 1518 1521 1524 1527
1447 1447 1447 1448 1449 1451 1454 1456 1458 1460 1462 1463 1464 1465 1466 1467 1469 1470 1471 1472 1474 1475 1477 1478 1479 1480 1482 1484 1486 1489 1492 1494 1496 1498 1499 1502 1505 1509 1512 1515 1518 1521 1524
1447 1447 1447 1448 1449 1450 1452 1454 1456 1458 1459 1460 1460 1462 1463 1464 1466 1467 1468 1470 1471 1473 1475 1476 1477 1478 1479 1481 1483 1484 1486 1488 1490 1491 1494 1497 1500 1504 1508 1511 1514 1517 1519
1446 1446 1446 1447 1448 1450 1452 1453 1455 1456 1457 1458 1458 1459 1460 1461 1462 1464 1465 1466 1468 1470 1472 1473 1474 1476 1477 1478 1480 1481 1482 1483 1484 1484 1486 1490 1494 1498 1503 1507 1510 1513 1515
1445 1445 1445 1446 1447 1448 1450 1452 1453 1454 1455 1456 1456 1457 1457 1458 1459 1460 1461 1463 1465 1467 1469 1470 1472 1473 1474 1476 1477 1477 1478 1478 1478 1478 1480 1484 1489 1494 1499 1503 1506 1509 1511
1444 1444 1444 1445 1446 1447 1449 1450 1451 1451 1452 1453 1453 1454 1455 1456 1457 1458 1459 1460 1462 1464 1465 1467 1469 1470 1472 1473 1473 1474 1475 1476 1476 1477 1478 1482 1487 1491 1495 1499 1503 1505 1508
1445 1444 1444 1445 1446 1446 1447 1447 1448 1449 1449 1450 1451 1452 1453 1454 1456 1457 1457 1458 1460 1461 1463 1465 1467 1468 1469 1470 1471 1471 1472 1474 1475 1477 1479 1482 1485 1488 1492 1496 1499 1502 1504
1445 1444 1444 1445 1445 1445 1445 1446 1447 1447 1448 1449 1450 1451 1452 1453 1454 1455 1456 1457 1458 1460 1462 1463 1465 1466 1467 1467 1468 1468 1468 1470 1472 1474 1477 1480 1482 1485 1488 1491 1495 1498 1500
1445 1445 1445 1446 1446 1446 1446 1447 1447 1447 1448 1449 1449 1450 1451 1452 1453 1453 1454 1455 1456 1457 1459 1460 1462 1462 1463 1464 1464 1465 1465 1466 1468 1470 1473 1475 1478 1481 1484 1487 1490 1492 1494
1445 1446 1446 1447 1447 1447 1447 1447 1447 1448 1448 1449 1450 1450 1451 1451 1452 1452 1453 1453 1454 1454 1455 1456 1457 1458 1459 1460 1460 1461 1462 1463 1464 1466 1468 1471 1474 1476 1479 1481 1484 1486 1488
1445 1446 1446 1447 1447 1448 1448 1448 1448 1448 1449 1449 1450 1451 1451 1451 1451 1452 1452 1452 1452 1452 1453 1453 1454 1455 1455 1456 1456 1457 1458 1459 1460 1462 1464 1466 1468 1471 1473 1475 1478 1480 1482
1445 1446 1446 1447 1447 1448 1449 1449 1449 1449 1450 1450 1450 1451 1451 1452 1452 1452 1452 1452 1451 1451 1450 1450 1450 1451 1451 1451 1452 1452 1453 1454 1455 1456 1458 1460 1462 1465 1467 1470 1472 1474 1476
1444 1445 1446 1446 1447 1448 1449 1449 1450 1450 1451 1451 1451 1452 1452 1452 1452 1452 1452 1451 1451 1450 1449 1448 1447 1447 1448 1448 1448 1448 1448 1449 1450 1451 1452 1454 1456 1459 1462 1464 1466 1468 1470
1444 1445 1446 1446 1447 1448 1449 1450 1450 1451 1451 1452 1452 1452 1453 1452 1452 1452 1451 1450 1450 1449 1448 1447 1446 1445 1445 1444 1444 1444 1444 1444 1445 1446 1447 1449 1452 1454 1457 1459 1461 1463 1464
1443 1444 1445 1446 1447 1448 1449 1450 1451 1451 1451 1452 1452 1452 1452 1452 1451 1451 1450 1449 1448 1448 1447 1446 1445 1444 1443 1442 1441 1441 1441 1441 1441 1442 1444 1446 1448 1450 1452 1454 1456 1457 1458